Time,TemperatureF,DewpointF,PressureIn,WindDirection,WindDirectionDegrees,WindSpeedMPH,WindSpeedGustMPH,Humidity,HourlyPrecipIn,Conditions,Clouds,dailyrainin,SoftwareType,DateUTC
2013-08-09 00:00:00,69.6,62.8,29.26,NE,53,0.0,0.0,79,0.00,,---,0.00,VWS V12.08,2013-08-09 05:00:00,
2013-08-09 00:05:00,69.5,62.7,29.26,NE,51,0.0,0.0,79,0.00,,---,0.00,VWS V12.08,2013-08-09 05:05:00,
2013-08-09 00:10:00,69.4,63.0,29.26,East,80,0.0,0.0,80,0.00,,---,0.00,VWS V12.08,2013-08-09 05:10:00,
2013-08-09 00:15:00,69.3,62.9,29.27,ESE,113,0.0,0.0,80,0.00,,---,0.00,VWS V12.08,2013-08-09 05:15:00,
2013-08-09 00:21:00,69.4,63.0,29.27,ESE,122,0.0,0.0,80,0.00,,---,0.00,VWS V12.08,2013-08-09 05:21:00,
2013-08-09 00:26:00,69.6,63.2,29.27,ENE,66,0.0,0.0,80,0.00,,---,0.00,VWS V12.08,2013-08-09 05:26:00,
2013-08-09 00:31:00,69.5,63.1,29.27,ENE,70,0.0,0.0,80,0.00,,---,0.00,VWS V12.08,2013-08-09 05:31:00,
2013-08-09 00:36:00,69.4,63.0,29.27,East,92,0.0,0.0,80,0.00,,---,0.00,VWS V12.08,2013-08-09 05:36:00,
2013-08-09 00:41:00,69.3,62.9,29.27,East,100,0.0,0.0,80,0.00,,---,0.00,VWS V12.08,2013-08-09 05:41:00,
2013-08-09 00:46:00,69.2,62.8,29.27,SE,136,0.0,0.0,80,0.00,,---,0.00,VWS V12.08,2013-08-09 05:46:00,
2013-08-09 00:51:00,69.0,62.9,29.27,NNE,29,0.0,0.0,81,0.00,,---,0.00,VWS V12.08,2013-08-09 05:51:00,
2013-08-09 00:56:00,69.1,63.0,29.27,ENE,74,0.0,0.0,81,0.00,,---,0.00,VWS V12.08,2013-08-09 05:56:00,
2013-08-09 01:01:00,69.1,63.0,29.27,ENE,72,0.0,0.0,81,0.00,,---,0.00,VWS V12.08,2013-08-09 06:01:00,
2013-08-09 01:06:00,69.1,63.0,29.26,ENE,67,0.0,0.0,81,0.00,,---,0.00,VWS V12.08,2013-08-09 06:06:00,
2013-08-09 01:12:00,68.9,62.8,29.26,East,92,0.0,0.0,81,0.00,,---,0.00,VWS V12.08,2013-08-09 06:12:00,
2013-08-09 01:17:00,68.8,62.4,29.27,East,94,0.0,0.0,80,0.00,,---,0.00,VWS V12.08,2013-08-09 06:17:00,
2013-08-09 01:22:00,68.8,62.7,29.27,SE,134,0.0,0.0,81,0.00,,---,0.00,VWS V12.08,2013-08-09 06:22:00,
2013-08-09 01:27:00,69.1,63.0,29.27,East,83,0.0,0.0,81,0.00,,---,0.00,VWS V12.08,2013-08-09 06:27:00,
2013-08-09 01:32:00,69.3,62.9,29.27,NE,52,0.0,0.0,80,0.00,,---,0.00,VWS V12.08,2013-08-09 06:32:00,
2013-08-09 01:37:00,69.4,62.6,29.26,East,95,0.0,0.0,79,0.00,,---,0.00,VWS V12.08,2013-08-09 06:37:00,
2013-08-09 01:43:00,69.3,62.5,29.26,East,100,0.0,0.0,79,0.00,,---,0.00,VWS V12.08,2013-08-09 06:43:00,
2013-08-09 01:48:00,69.3,62.2,29.26,East,97,0.0,0.0,78,0.00,,---,0.00,VWS V12.08,2013-08-09 06:48:00,
2013-08-09 01:53:00,69.1,62.0,29.26,East,89,0.0,0.0,78,0.00,,---,0.00,VWS V12.08,2013-08-09 06:53:00,
2013-08-09 01:58:00,69.1,62.3,29.27,ESE,121,0.0,0.0,79,0.00,,---,0.00,VWS V12.08,2013-08-09 06:58:00,
2013-08-09 02:03:00,69.2,62.4,29.27,East,95,0.0,0.0,79,0.00,,---,0.00,VWS V12.08,2013-08-09 07:03:00,
2013-08-09 02:08:00,69.2,62.4,29.27,ESE,105,0.0,0.0,79,0.00,,---,0.00,VWS V12.08,2013-08-09 07:08:00,
2013-08-09 02:13:00,69.4,62.6,29.26,East,85,0.0,0.0,79,0.00,,---,0.00,VWS V12.08,2013-08-09 07:13:00,
2013-08-09 02:18:00,69.4,62.6,29.26,ENE,57,0.0,0.0,79,0.00,,---,0.00,VWS V12.08,2013-08-09 07:18:00,
2013-08-09 02:23:00,69.4,62.2,29.26,ENE,63,0.0,0.0,78,0.00,,---,0.00,VWS V12.08,2013-08-09 07:23:00,
2013-08-09 02:28:00,69.4,62.2,29.26,ENE,72,0.0,0.0,78,0.00,,---,0.00,VWS V12.08,2013-08-09 07:28:00,
2013-08-09 02:33:00,69.5,62.7,29.26,NE,42,0.0,0.0,79,0.00,,---,0.00,VWS V12.08,2013-08-09 07:33:00,
2013-08-09 02:38:00,69.7,62.9,29.26,NE,53,0.0,0.0,79,0.00,,---,0.00,VWS V12.08,2013-08-09 07:38:00,
2013-08-09 02:43:00,69.7,62.9,29.26,ENE,62,0.0,0.0,79,0.00,,---,0.00,VWS V12.08,2013-08-09 07:43:00,
2013-08-09 02:49:00,69.7,62.9,29.26,ENE,76,0.0,0.0,79,0.00,,---,0.00,VWS V12.08,2013-08-09 07:49:00,
2013-08-09 02:54:00,69.7,62.9,29.25,NNE,33,0.0,0.0,79,0.00,,---,0.00,VWS V12.08,2013-08-09 07:54:00,
2013-08-09 02:59:00,69.6,62.4,29.25,South,181,0.0,0.0,78,0.00,,---,0.00,VWS V12.08,2013-08-09 07:59:00,
2013-08-09 03:04:00,69.5,62.3,29.25,South,169,0.0,0.0,78,0.00,,---,0.00,VWS V12.08,2013-08-09 08:04:00,
2013-08-09 03:09:00,69.2,62.1,29.25,SE,125,0.0,0.0,78,0.00,,---,0.00,VWS V12.08,2013-08-09 08:09:00,
2013-08-09 03:15:00,69.0,61.9,29.25,NE,34,0.0,0.0,78,0.00,,---,0.00,VWS V12.08,2013-08-09 08:15:00,
2013-08-09 03:21:00,68.6,61.8,29.25,NE,36,0.0,0.0,79,0.00,,---,0.00,VWS V12.08,2013-08-09 08:21:00,
2013-08-09 03:26:00,68.3,61.5,29.25,NE,39,0.0,0.0,79,0.00,,---,0.00,VWS V12.08,2013-08-09 08:26:00,
2013-08-09 03:31:00,68.0,61.6,29.25,West,263,0.0,0.0,80,0.00,,---,0.00,VWS V12.08,2013-08-09 08:31:00,
2013-08-09 03:37:00,67.6,61.6,29.25,NW,305,0.0,0.0,81,0.00,,---,0.00,VWS V12.08,2013-08-09 08:37:00,
2013-08-09 03:43:00,67.3,61.6,29.25,SE,130,0.0,0.0,82,0.00,,---,0.00,VWS V12.08,2013-08-09 08:43:00,
2013-08-09 03:48:00,67.1,61.4,29.25,South,170,0.0,0.0,82,0.00,,---,0.00,VWS V12.08,2013-08-09 08:48:00,
2013-08-09 03:53:00,67.0,61.3,29.25,WSW,255,0.0,0.0,82,0.00,,---,0.00,VWS V12.08,2013-08-09 08:53:00,
2013-08-09 03:58:00,66.9,61.6,29.26,NE,42,0.0,0.0,83,0.00,,---,0.00,VWS V12.08,2013-08-09 08:58:00,
2013-08-09 04:03:00,66.8,61.8,29.26,NNE,21,0.0,0.0,84,0.00,,---,0.00,VWS V12.08,2013-08-09 09:03:00,
2013-08-09 04:08:00,66.6,61.6,29.26,NE,42,0.0,0.0,84,0.00,,---,0.00,VWS V12.08,2013-08-09 09:08:00,
2013-08-09 04:13:00,66.7,61.7,29.26,NE,53,0.0,0.0,84,0.00,,---,0.00,VWS V12.08,2013-08-09 09:13:00,
2013-08-09 04:18:00,66.7,61.7,29.26,ENE,76,0.0,0.0,84,0.00,,---,0.00,VWS V12.08,2013-08-09 09:18:00,
2013-08-09 04:23:00,66.7,61.7,29.26,ESE,104,0.0,0.0,84,0.00,,---,0.00,VWS V12.08,2013-08-09 09:23:00,
2013-08-09 04:28:00,66.7,61.7,29.26,ENE,71,0.0,0.0,84,0.00,,---,0.00,VWS V12.08,2013-08-09 09:28:00,
2013-08-09 04:33:00,66.6,61.6,29.26,ENE,63,0.0,0.0,84,0.00,,---,0.00,VWS V12.08,2013-08-09 09:33:00,
2013-08-09 04:38:00,66.5,61.5,29.26,ENE,74,0.0,0.0,84,0.00,,---,0.00,VWS V12.08,2013-08-09 09:38:00,
2013-08-09 04:43:00,66.4,61.8,29.26,ENE,73,0.0,0.0,85,0.00,,---,0.00,VWS V12.08,2013-08-09 09:43:00,
2013-08-09 04:48:00,66.3,61.7,29.26,East,91,0.0,0.0,85,0.00,,---,0.00,VWS V12.08,2013-08-09 09:48:00,
2013-08-09 04:53:00,66.2,61.6,29.26,East,87,0.0,0.0,85,0.00,,---,0.00,VWS V12.08,2013-08-09 09:53:00,
2013-08-09 04:58:00,66.2,61.9,29.26,East,80,0.0,0.0,86,0.00,,---,0.00,VWS V12.08,2013-08-09 09:58:00,
2013-08-09 05:03:00,66.2,61.9,29.26,WSW,243,0.0,0.0,86,0.00,,---,0.00,VWS V12.08,2013-08-09 10:03:00,
2013-08-09 05:08:00,66.2,61.9,29.26,NW,317,0.0,0.0,86,0.00,,---,0.00,VWS V12.08,2013-08-09 10:08:00,
2013-08-09 05:13:00,66.3,62.0,29.27,SW,225,0.0,0.0,86,0.00,,---,0.00,VWS V12.08,2013-08-09 10:13:00,
2013-08-09 05:19:00,66.2,61.9,29.27,SSE,161,0.0,0.0,86,0.00,,---,0.00,VWS V12.08,2013-08-09 10:19:00,
2013-08-09 05:24:00,66.0,62.0,29.27,SW,220,0.0,0.0,87,0.00,,---,0.00,VWS V12.08,2013-08-09 10:24:00,
2013-08-09 05:29:00,66.0,62.0,29.28,NNW,336,0.0,0.0,87,0.00,,---,0.00,VWS V12.08,2013-08-09 10:29:00,
2013-08-09 05:34:00,66.0,62.0,29.28,SSE,150,0.0,0.0,87,0.00,,---,0.00,VWS V12.08,2013-08-09 10:34:00,
2013-08-09 05:39:00,65.8,61.8,29.28,NW,313,0.0,0.0,87,0.00,,---,0.00,VWS V12.08,2013-08-09 10:39:00,
2013-08-09 05:44:00,65.7,61.7,29.28,NE,37,0.0,0.0,87,0.00,,---,0.00,VWS V12.08,2013-08-09 10:44:00,
2013-08-09 05:50:00,65.6,62.0,29.28,SE,138,0.0,0.0,88,0.00,,---,0.00,VWS V12.08,2013-08-09 10:50:00,
2013-08-09 05:55:00,65.6,62.0,29.28,East,80,0.0,0.0,88,0.00,,---,0.00,VWS V12.08,2013-08-09 10:55:00,
2013-08-09 06:00:00,65.5,61.9,29.28,East,98,0.0,0.0,88,0.00,,---,0.00,VWS V12.08,2013-08-09 11:00:00,
2013-08-09 06:05:00,65.6,62.0,29.28,ENE,60,0.0,0.0,88,0.00,,---,0.00,VWS V12.08,2013-08-09 11:05:00,
2013-08-09 06:10:00,65.6,62.0,29.28,ESE,121,0.0,0.0,88,0.00,,---,0.00,VWS V12.08,2013-08-09 11:10:00,
2013-08-09 06:15:00,65.6,62.0,29.28,NE,48,0.0,0.0,88,0.00,,---,0.00,VWS V12.08,2013-08-09 11:15:00,
2013-08-09 06:20:00,65.7,62.0,29.28,South,185,0.0,0.0,88,0.00,,---,0.00,VWS V12.08,2013-08-09 11:20:00,
2013-08-09 06:25:00,65.7,62.0,29.28,WNW,294,0.0,0.0,88,0.00,,---,0.00,VWS V12.08,2013-08-09 11:25:00,
2013-08-09 06:30:00,65.8,62.2,29.28,SSE,147,0.0,0.0,88,0.00,,---,0.00,VWS V12.08,2013-08-09 11:30:00,
2013-08-09 06:35:00,65.9,62.2,29.28,NE,39,0.0,0.0,88,0.00,,---,0.00,VWS V12.08,2013-08-09 11:35:00,
2013-08-09 06:40:00,66.1,62.1,29.28,NNE,18,0.0,0.0,87,0.00,,---,0.00,VWS V12.08,2013-08-09 11:40:00,
2013-08-09 06:46:00,66.4,62.4,29.28,NE,50,0.0,0.0,87,0.00,,---,0.00,VWS V12.08,2013-08-09 11:46:00,
2013-08-09 06:51:00,66.6,62.6,29.28,NE,51,0.0,0.0,87,0.00,,---,0.00,VWS V12.08,2013-08-09 11:51:00,
2013-08-09 06:56:00,66.7,62.4,29.29,ENE,78,0.0,1.0,86,0.00,,---,0.00,VWS V12.08,2013-08-09 11:56:00,
2013-08-09 07:02:00,66.6,62.0,29.29,NNW,327,0.0,0.0,85,0.00,,---,0.00,VWS V12.08,2013-08-09 12:02:00,
2013-08-09 07:07:00,66.5,62.2,29.28,East,99,0.0,0.0,86,0.00,,---,0.00,VWS V12.08,2013-08-09 12:07:00,
2013-08-09 07:12:00,66.4,62.1,29.28,NE,40,0.0,0.0,86,0.00,,---,0.00,VWS V12.08,2013-08-09 12:12:00,
2013-08-09 07:17:00,66.4,62.1,29.28,NNE,25,0.0,0.0,86,0.00,,---,0.00,VWS V12.08,2013-08-09 12:17:00,
2013-08-09 07:22:00,66.5,62.2,29.28,NNE,24,0.0,0.0,86,0.00,,---,0.00,VWS V12.08,2013-08-09 12:22:00,
2013-08-09 07:27:00,66.6,62.3,29.28,NE,41,0.0,0.0,86,0.00,,---,0.00,VWS V12.08,2013-08-09 12:27:00,
2013-08-09 07:32:00,67.0,62.7,29.29,NE,56,0.0,0.0,86,0.00,,---,0.00,VWS V12.08,2013-08-09 12:32:00,
2013-08-09 07:37:00,67.3,63.0,29.29,SSE,166,0.0,0.0,86,0.00,,---,0.00,VWS V12.08,2013-08-09 12:37:00,
2013-08-09 07:42:00,67.6,63.3,29.28,SSE,147,0.0,0.0,86,0.00,,---,0.00,VWS V12.08,2013-08-09 12:42:00,
2013-08-09 07:47:00,68.1,63.4,29.28,ESE,107,0.0,0.0,85,0.00,,---,0.00,VWS V12.08,2013-08-09 12:47:00,
2013-08-09 07:52:00,68.6,63.6,29.28,ENE,67,0.0,0.0,84,0.00,,---,0.00,VWS V12.08,2013-08-09 12:52:00,
2013-08-09 07:57:00,68.9,63.9,29.29,NE,35,0.0,0.0,84,0.00,,---,0.00,VWS V12.08,2013-08-09 12:57:00,
2013-08-09 08:03:00,69.2,63.8,29.29,NE,48,0.0,0.0,83,0.00,,---,0.00,VWS V12.08,2013-08-09 13:03:00,
2013-08-09 08:08:00,69.4,63.7,29.29,North,11,0.0,0.0,82,0.00,,---,0.00,VWS V12.08,2013-08-09 13:08:00,
2013-08-09 08:13:00,69.4,63.7,29.29,North,7,0.0,0.0,82,0.00,,---,0.00,VWS V12.08,2013-08-09 13:13:00,
2013-08-09 08:18:00,69.6,63.9,29.29,North,3,0.0,0.0,82,0.00,,---,0.00,VWS V12.08,2013-08-09 13:18:00,
2013-08-09 08:23:00,69.8,64.1,29.29,North,6,0.0,1.0,82,0.00,,---,0.00,VWS V12.08,2013-08-09 13:23:00,
2013-08-09 08:28:00,70.2,64.1,29.29,ESE,112,0.0,1.0,81,0.00,,---,0.00,VWS V12.08,2013-08-09 13:28:00,
2013-08-09 08:33:00,70.5,64.4,29.30,North,0,0.0,0.0,81,0.00,,---,0.00,VWS V12.08,2013-08-09 13:33:00,
2013-08-09 08:38:00,70.8,64.3,29.29,NNW,342,0.0,1.0,80,0.00,,---,0.00,VWS V12.08,2013-08-09 13:38:00,
2013-08-09 08:43:00,70.9,64.1,29.30,North,357,0.0,1.0,79,0.00,,---,0.00,VWS V12.08,2013-08-09 13:43:00,
2013-08-09 08:48:00,71.3,64.5,29.29,North,0,0.0,1.0,79,0.00,,---,0.00,VWS V12.08,2013-08-09 13:48:00,
2013-08-09 08:53:00,71.6,64.4,29.29,North,358,0.0,1.0,78,0.00,,---,0.00,VWS V12.08,2013-08-09 13:53:00,
2013-08-09 08:58:00,72.1,64.5,29.29,North,353,0.0,1.0,77,0.00,,---,0.00,VWS V12.08,2013-08-09 13:58:00,
2013-08-09 09:03:00,72.4,64.0,29.29,NW,316,0.0,0.0,75,0.00,,---,0.00,VWS V12.08,2013-08-09 14:03:00,
2013-08-09 09:08:00,72.9,63.8,29.29,North,355,0.0,0.0,73,0.00,,---,0.00,VWS V12.08,2013-08-09 14:08:00,
2013-08-09 09:13:00,73.3,64.1,29.29,NW,306,0.0,0.0,73,0.00,,---,0.00,VWS V12.08,2013-08-09 14:13:00,
2013-08-09 09:18:00,73.6,64.0,29.29,NNW,339,0.0,1.0,72,0.00,,---,0.00,VWS V12.08,2013-08-09 14:18:00,
2013-08-09 09:23:00,73.9,64.7,29.29,WNW,291,0.0,1.0,73,0.00,,---,0.00,VWS V12.08,2013-08-09 14:23:00,
2013-08-09 09:28:00,74.1,64.5,29.29,WNW,298,0.0,1.0,72,0.00,,---,0.00,VWS V12.08,2013-08-09 14:28:00,
2013-08-09 09:34:00,73.9,64.3,29.29,WNW,297,0.0,1.0,72,0.00,,---,0.00,VWS V12.08,2013-08-09 14:34:00,
2013-08-09 09:39:00,73.7,64.5,29.29,West,272,0.0,1.0,73,0.00,,---,0.00,VWS V12.08,2013-08-09 14:39:00,
2013-08-09 09:44:00,73.7,64.1,29.29,WNW,290,0.0,1.0,72,0.00,,---,0.00,VWS V12.08,2013-08-09 14:44:00,
2013-08-09 09:49:00,74.4,64.4,29.29,NW,305,0.0,1.0,71,0.00,,---,0.00,VWS V12.08,2013-08-09 14:49:00,
2013-08-09 09:54:00,74.8,64.8,29.29,WNW,289,0.0,1.0,71,0.00,,---,0.00,VWS V12.08,2013-08-09 14:54:00,
2013-08-09 09:59:00,75.0,64.6,29.29,NW,315,0.0,1.0,70,0.00,,---,0.00,VWS V12.08,2013-08-09 14:59:00,
2013-08-09 10:04:00,75.3,64.4,29.29,North,351,0.0,0.0,69,0.00,,---,0.00,VWS V12.08,2013-08-09 15:04:00,
2013-08-09 10:09:00,75.5,64.6,29.30,WNW,290,0.0,1.0,69,0.00,,---,0.00,VWS V12.08,2013-08-09 15:09:00,
2013-08-09 10:14:00,75.5,64.6,29.30,NW,304,0.0,1.0,69,0.00,,---,0.00,VWS V12.08,2013-08-09 15:14:00,
2013-08-09 10:19:00,75.9,65.0,29.30,NW,318,0.0,1.0,69,0.00,,---,0.00,VWS V12.08,2013-08-09 15:19:00,
2013-08-09 10:25:00,76.1,64.8,29.30,WNW,297,0.0,1.0,68,0.00,,---,0.00,VWS V12.08,2013-08-09 15:25:00,
2013-08-09 10:30:00,76.6,65.3,29.30,WNW,297,0.0,1.0,68,0.00,,---,0.00,VWS V12.08,2013-08-09 15:30:00,
2013-08-09 10:35:00,77.0,65.2,29.30,NW,305,0.0,1.0,67,0.00,,---,0.00,VWS V12.08,2013-08-09 15:35:00,
2013-08-09 10:40:00,76.8,65.4,29.30,West,275,0.0,1.0,68,0.00,,---,0.00,VWS V12.08,2013-08-09 15:40:00,
2013-08-09 10:45:00,76.7,64.9,29.30,WNW,293,0.0,1.0,67,0.00,,---,0.00,VWS V12.08,2013-08-09 15:45:00,
2013-08-09 10:50:00,76.7,65.3,29.30,NNW,347,0.0,1.0,68,0.00,,---,0.00,VWS V12.08,2013-08-09 15:50:00,
2013-08-09 10:55:00,77.2,65.4,29.29,WNW,300,0.0,1.0,67,0.00,,---,0.00,VWS V12.08,2013-08-09 15:55:00,
2013-08-09 11:00:00,77.6,65.3,29.29,North,349,0.0,0.0,66,0.00,,---,0.00,VWS V12.08,2013-08-09 16:00:00,
2013-08-09 11:05:00,77.8,65.5,29.29,NNW,344,0.0,0.0,66,0.00,,---,0.00,VWS V12.08,2013-08-09 16:05:00,
2013-08-09 11:10:00,77.7,65.4,29.30,NNW,347,0.0,0.0,66,0.00,,---,0.00,VWS V12.08,2013-08-09 16:10:00,
2013-08-09 11:15:00,77.7,65.0,29.30,WNW,302,0.0,0.0,65,0.00,,---,0.00,VWS V12.08,2013-08-09 16:15:00,
2013-08-09 11:20:00,77.9,65.2,29.30,WNW,297,0.0,1.0,65,0.00,,---,0.00,VWS V12.08,2013-08-09 16:20:00,
2013-08-09 11:25:00,78.3,65.1,29.30,WNW,299,0.0,1.0,64,0.00,,---,0.00,VWS V12.08,2013-08-09 16:25:00,
2013-08-09 11:30:00,78.7,64.6,29.30,NNW,340,0.0,0.0,62,0.00,,---,0.00,VWS V12.08,2013-08-09 16:30:00,
2013-08-09 11:35:00,78.6,64.5,29.29,NNW,338,0.0,0.0,62,0.00,,---,0.00,VWS V12.08,2013-08-09 16:35:00,
2013-08-09 11:40:00,79.0,64.9,29.30,North,353,0.0,0.0,62,0.00,,---,0.00,VWS V12.08,2013-08-09 16:40:00,
2013-08-09 11:45:00,78.9,65.2,29.30,North,4,0.0,0.0,63,0.00,,---,0.00,VWS V12.08,2013-08-09 16:45:00,
2013-08-09 11:50:00,79.1,65.0,29.29,NNW,339,0.0,1.0,62,0.00,,---,0.00,VWS V12.08,2013-08-09 16:50:00,
2013-08-09 11:55:00,79.2,65.1,29.29,NNW,338,0.0,1.0,62,0.00,,---,0.00,VWS V12.08,2013-08-09 16:55:00,
2013-08-09 12:00:00,79.2,64.6,29.29,NNW,339,0.0,0.0,61,0.00,,---,0.00,VWS V12.08,2013-08-09 17:00:00,
2013-08-09 12:05:00,79.5,64.9,29.29,NNW,327,0.0,1.0,61,0.00,,---,0.00,VWS V12.08,2013-08-09 17:05:00,
2013-08-09 12:11:00,79.6,64.5,29.29,NNW,345,0.0,1.0,60,0.00,,---,0.00,VWS V12.08,2013-08-09 17:11:00,
2013-08-09 12:16:00,79.5,64.4,29.29,NNW,335,0.0,1.0,60,0.00,,---,0.00,VWS V12.08,2013-08-09 17:16:00,
2013-08-09 12:21:00,79.7,64.6,29.29,North,353,0.0,1.0,60,0.00,,---,0.00,VWS V12.08,2013-08-09 17:21:00,
2013-08-09 12:26:00,79.9,64.8,29.29,NNW,347,0.0,1.0,60,0.00,,---,0.00,VWS V12.08,2013-08-09 17:26:00,
2013-08-09 12:32:00,79.8,64.2,29.29,WNW,302,0.0,1.0,59,0.00,,---,0.00,VWS V12.08,2013-08-09 17:32:00,
2013-08-09 12:37:00,79.8,64.2,29.29,NW,305,1.0,1.0,59,0.00,,---,0.00,VWS V12.08,2013-08-09 17:37:00,
2013-08-09 12:42:00,80.2,63.6,29.29,WNW,303,0.0,1.0,57,0.00,,---,0.00,VWS V12.08,2013-08-09 17:42:00,
2013-08-09 12:47:00,80.5,63.4,29.29,NNW,342,0.0,1.0,56,0.00,,---,0.00,VWS V12.08,2013-08-09 17:47:00,
2013-08-09 12:52:00,80.8,63.7,29.29,West,279,0.0,1.0,56,0.00,,---,0.00,VWS V12.08,2013-08-09 17:52:00,
2013-08-09 12:57:00,81.1,63.9,29.29,North,2,0.0,1.0,56,0.00,,---,0.00,VWS V12.08,2013-08-09 17:57:00,
2013-08-09 13:02:00,81.1,63.9,29.29,WNW,301,0.0,1.0,56,0.00,,---,0.00,VWS V12.08,2013-08-09 18:02:00,
2013-08-09 13:08:00,80.5,63.9,29.29,NNW,347,0.0,2.0,57,0.00,,---,0.00,VWS V12.08,2013-08-09 18:08:00,
2013-08-09 13:13:00,80.9,63.8,29.29,NNW,347,0.0,2.0,56,0.00,,---,0.00,VWS V12.08,2013-08-09 18:13:00,
2013-08-09 13:18:00,80.9,63.8,29.29,North,351,0.0,2.0,56,0.00,,---,0.00,VWS V12.08,2013-08-09 18:18:00,
2013-08-09 13:23:00,80.8,63.7,29.29,NNW,333,0.0,2.0,56,0.00,,---,0.00,VWS V12.08,2013-08-09 18:23:00,
2013-08-09 13:28:00,81.0,64.3,29.29,North,357,0.0,2.0,57,0.00,,---,0.00,VWS V12.08,2013-08-09 18:28:00,
2013-08-09 13:33:00,81.6,64.4,29.29,North,354,0.0,1.0,56,0.00,,---,0.00,VWS V12.08,2013-08-09 18:33:00,
2013-08-09 13:38:00,81.5,63.8,29.29,NNE,15,0.0,1.0,55,0.00,,---,0.00,VWS V12.08,2013-08-09 18:38:00,
2013-08-09 13:44:00,81.3,64.1,29.29,North,7,0.0,1.0,56,0.00,,---,0.00,VWS V12.08,2013-08-09 18:44:00,
2013-08-09 13:49:00,81.6,63.4,29.29,North,354,0.0,1.0,54,0.00,,---,0.00,VWS V12.08,2013-08-09 18:49:00,
2013-08-09 13:54:00,81.7,63.5,29.29,NNW,339,0.0,1.0,54,0.00,,---,0.00,VWS V12.08,2013-08-09 18:54:00,
2013-08-09 13:59:00,81.5,63.3,29.29,North,0,0.0,1.0,54,0.00,,---,0.00,VWS V12.08,2013-08-09 18:59:00,
2013-08-09 14:04:00,81.9,63.6,29.29,WNW,282,0.0,0.0,54,0.00,,---,0.00,VWS V12.08,2013-08-09 19:04:00,
2013-08-09 14:09:00,81.0,63.8,29.29,WSW,256,0.0,1.0,56,0.00,,---,0.00,VWS V12.08,2013-08-09 19:09:00,
2013-08-09 14:14:00,80.8,63.7,29.29,NNW,341,0.0,1.0,56,0.00,,---,0.00,VWS V12.08,2013-08-09 19:14:00,
2013-08-09 14:19:00,81.2,63.5,29.28,NNW,337,0.0,1.0,55,0.00,,---,0.00,VWS V12.08,2013-08-09 19:19:00,
2013-08-09 14:24:00,81.5,63.8,29.29,NNW,342,0.0,1.0,55,0.00,,---,0.00,VWS V12.08,2013-08-09 19:24:00,
2013-08-09 14:29:00,81.0,63.8,29.29,North,349,0.0,1.0,56,0.00,,---,0.00,VWS V12.08,2013-08-09 19:29:00,
2013-08-09 14:34:00,80.8,65.2,29.29,NNW,338,0.0,1.0,59,0.00,,---,0.00,VWS V12.08,2013-08-09 19:34:00,
2013-08-09 14:39:00,78.7,67.7,29.30,North,0,0.0,1.0,69,0.05,,---,0.05,VWS V12.08,2013-08-09 19:39:00,
2013-08-09 14:44:00,75.5,67.8,29.29,North,358,0.0,1.0,77,0.11,,---,0.11,VWS V12.08,2013-08-09 19:44:00,
2013-08-09 14:49:00,74.3,67.0,29.29,North,357,0.0,1.0,78,0.15,,---,0.15,VWS V12.08,2013-08-09 19:49:00,
2013-08-09 14:55:00,73.9,67.3,29.29,North,359,0.0,1.0,80,0.15,,---,0.15,VWS V12.08,2013-08-09 19:55:00,
2013-08-09 15:00:00,74.0,67.4,29.29,North,358,0.0,1.0,80,0.15,,---,0.00,VWS V12.08,2013-08-09 20:00:00,
2013-08-09 15:05:00,74.5,68.3,29.29,North,359,0.0,0.0,81,0.15,,---,0.15,VWS V12.08,2013-08-09 20:05:00,
2013-08-09 15:11:00,75.2,69.0,29.29,North,359,0.0,1.0,81,0.15,,---,0.15,VWS V12.08,2013-08-09 20:11:00,
2013-08-09 15:16:00,75.6,68.3,29.29,North,3,0.0,1.0,78,0.15,,---,0.15,VWS V12.08,2013-08-09 20:16:00,
2013-08-09 15:21:00,75.9,68.2,29.29,NNE,15,0.0,1.0,77,0.15,,---,0.15,VWS V12.08,2013-08-09 20:21:00,
2013-08-09 15:26:00,76.2,68.1,29.29,NNE,28,0.0,1.0,76,0.15,,---,0.15,VWS V12.08,2013-08-09 20:26:00,
2013-08-09 15:31:00,76.6,68.1,29.30,NNE,19,0.0,0.0,75,0.15,,---,0.15,VWS V12.08,2013-08-09 20:31:00,
2013-08-09 15:36:00,76.6,66.5,29.29,NNE,24,0.0,0.0,71,0.15,,---,0.15,VWS V12.08,2013-08-09 20:36:00,
2013-08-09 15:41:00,76.5,66.0,29.30,North,11,0.0,0.0,70,0.15,,---,0.15,VWS V12.08,2013-08-09 20:41:00,
2013-08-09 15:46:00,76.6,65.7,29.30,NNE,24,0.0,0.0,69,0.15,,---,0.15,VWS V12.08,2013-08-09 20:46:00,
2013-08-09 15:51:00,76.8,66.3,29.30,North,359,0.0,0.0,70,0.15,,---,0.15,VWS V12.08,2013-08-09 20:51:00,
2013-08-09 15:56:00,77.2,66.2,29.30,NNE,22,0.0,0.0,69,0.15,,---,0.15,VWS V12.08,2013-08-09 20:56:00,
2013-08-09 16:01:00,77.5,66.1,29.30,North,0,0.0,0.0,68,0.00,,---,0.15,VWS V12.08,2013-08-09 21:01:00,
2013-08-09 16:06:00,77.5,65.3,29.30,North,357,0.0,0.0,66,0.00,,---,0.15,VWS V12.08,2013-08-09 21:06:00,
2013-08-09 16:11:00,77.8,65.5,29.30,NNE,25,0.0,0.0,66,0.00,,---,0.15,VWS V12.08,2013-08-09 21:11:00,
2013-08-09 16:16:00,77.9,65.2,29.30,NE,36,0.0,0.0,65,0.00,,---,0.15,VWS V12.08,2013-08-09 21:16:00,
2013-08-09 16:21:00,77.9,65.2,29.30,NNE,14,0.0,0.0,65,0.00,,---,0.15,VWS V12.08,2013-08-09 21:21:00,
2013-08-09 16:27:00,78.1,65.4,29.30,North,359,0.0,0.0,65,0.00,,---,0.15,VWS V12.08,2013-08-09 21:27:00,
2013-08-09 16:33:00,78.7,65.1,29.29,North,0,0.0,0.0,63,0.00,,---,0.15,VWS V12.08,2013-08-09 21:33:00,
2013-08-09 16:38:00,78.4,64.8,29.29,North,0,0.0,0.0,63,0.00,,---,0.15,VWS V12.08,2013-08-09 21:38:00,
2013-08-09 16:43:00,78.5,64.4,29.29,North,0,0.0,0.0,62,0.00,,---,0.15,VWS V12.08,2013-08-09 21:43:00,
2013-08-09 16:48:00,78.3,63.3,29.30,East,86,0.0,0.0,60,0.00,,---,0.15,VWS V12.08,2013-08-09 21:48:00,
2013-08-09 16:53:00,78.1,63.6,29.30,North,0,0.0,0.0,61,0.00,,---,0.15,VWS V12.08,2013-08-09 21:53:00,
2013-08-09 16:58:00,77.7,62.7,29.30,NNE,14,0.0,0.0,60,0.00,,---,0.15,VWS V12.08,2013-08-09 21:58:00,
2013-08-09 17:03:00,77.8,63.3,29.30,North,0,0.0,0.0,61,0.00,,---,0.15,VWS V12.08,2013-08-09 22:03:00,
2013-08-09 17:08:00,78.0,63.5,29.30,NE,43,0.0,0.0,61,0.00,,---,0.15,VWS V12.08,2013-08-09 22:08:00,
2013-08-09 17:13:00,77.7,63.2,29.30,NNE,33,0.0,0.0,61,0.00,,---,0.15,VWS V12.08,2013-08-09 22:13:00,
2013-08-09 17:18:00,77.3,62.8,29.30,NE,46,0.0,0.0,61,0.00,,---,0.15,VWS V12.08,2013-08-09 22:18:00,
2013-08-09 17:23:00,77.0,62.1,29.30,NNE,28,0.0,0.0,60,0.00,,---,0.15,VWS V12.08,2013-08-09 22:23:00,
2013-08-09 17:28:00,76.8,62.8,29.30,NNE,24,0.0,0.0,62,0.00,,---,0.15,VWS V12.08,2013-08-09 22:28:00,
2013-08-09 17:33:00,76.6,62.6,29.30,ENE,59,0.0,0.0,62,0.00,,---,0.15,VWS V12.08,2013-08-09 22:33:00,
2013-08-09 17:38:00,76.6,62.6,29.30,ENE,59,0.0,0.0,62,0.00,,---,0.15,VWS V12.08,2013-08-09 22:38:00,
2013-08-09 17:43:00,76.6,62.6,29.30,NNE,30,0.0,0.0,62,0.00,,---,0.15,VWS V12.08,2013-08-09 22:43:00,
2013-08-09 17:48:00,76.5,62.1,29.30,NNE,20,0.0,0.0,61,0.00,,---,0.15,VWS V12.08,2013-08-09 22:48:00,
2013-08-09 17:53:00,76.5,62.5,29.30,North,0,0.0,0.0,62,0.00,,---,0.15,VWS V12.08,2013-08-09 22:53:00,
2013-08-09 17:58:00,76.4,62.0,29.30,NE,47,0.0,0.0,61,0.00,,---,0.15,VWS V12.08,2013-08-09 22:58:00,
2013-08-09 18:03:00,76.4,62.0,29.30,ESE,102,0.0,0.0,61,0.00,,---,0.15,VWS V12.08,2013-08-09 23:03:00,
2013-08-09 18:08:00,76.6,62.2,29.30,East,81,0.0,0.0,61,0.00,,---,0.15,VWS V12.08,2013-08-09 23:08:00,
2013-08-09 18:13:00,76.8,62.3,29.30,NNE,15,0.0,0.0,61,0.00,,---,0.15,VWS V12.08,2013-08-09 23:13:00,
2013-08-09 18:18:00,76.8,62.3,29.30,NE,40,0.0,0.0,61,0.00,,---,0.15,VWS V12.08,2013-08-09 23:18:00,
2013-08-09 18:23:00,76.7,62.2,29.30,NE,43,0.0,0.0,61,0.00,,---,0.15,VWS V12.08,2013-08-09 23:23:00,
2013-08-09 18:28:00,76.6,62.2,29.30,NE,47,0.0,0.0,61,0.00,,---,0.15,VWS V12.08,2013-08-09 23:28:00,
2013-08-09 18:33:00,76.5,62.5,29.30,NNE,32,0.0,0.0,62,0.00,,---,0.15,VWS V12.08,2013-08-09 23:33:00,
2013-08-09 18:38:00,76.5,62.1,29.30,North,7,0.0,0.0,61,0.00,,---,0.15,VWS V12.08,2013-08-09 23:38:00,
2013-08-09 18:43:00,76.6,62.2,29.30,NNE,25,0.0,0.0,61,0.00,,---,0.15,VWS V12.08,2013-08-09 23:43:00,
2013-08-09 18:48:00,76.9,62.0,29.30,NE,50,0.0,0.0,60,0.00,,---,0.15,VWS V12.08,2013-08-09 23:48:00,
2013-08-09 18:54:00,77.2,62.2,29.30,North,0,0.0,0.0,60,0.00,,---,0.15,VWS V12.08,2013-08-09 23:54:00,
2013-08-09 18:59:00,76.9,62.0,29.30,North,0,0.0,0.0,60,0.00,,---,0.15,VWS V12.08,2013-08-09 23:59:00,
2013-08-09 19:04:00,76.4,62.0,29.30,North,359,0.0,0.0,61,0.00,,---,0.15,VWS V12.08,2013-08-10 00:04:00,
2013-08-09 19:09:00,76.0,61.1,29.30,North,359,0.0,0.0,60,0.00,,---,0.15,VWS V12.08,2013-08-10 00:09:00,
2013-08-09 19:14:00,75.7,61.3,29.30,North,0,0.0,0.0,61,0.00,,---,0.15,VWS V12.08,2013-08-10 00:14:00,
2013-08-09 19:19:00,75.3,61.4,29.31,North,0,0.0,0.0,62,0.00,,---,0.15,VWS V12.08,2013-08-10 00:19:00,
2013-08-09 19:24:00,75.0,62.0,29.31,North,0,0.0,1.0,64,0.00,,---,0.15,VWS V12.08,2013-08-10 00:24:00,
2013-08-09 19:29:00,74.9,61.5,29.31,North,0,0.0,1.0,63,0.00,,---,0.15,VWS V12.08,2013-08-10 00:29:00,
2013-08-09 19:34:00,74.6,61.6,29.31,North,359,0.0,0.0,64,0.00,,---,0.15,VWS V12.08,2013-08-10 00:34:00,
2013-08-09 19:39:00,74.2,61.2,29.31,North,359,0.0,0.0,64,0.00,,---,0.15,VWS V12.08,2013-08-10 00:39:00,
2013-08-09 19:44:00,74.2,60.8,29.31,North,359,0.0,0.0,63,0.00,,---,0.15,VWS V12.08,2013-08-10 00:44:00,
2013-08-09 19:49:00,74.1,60.7,29.31,North,359,0.0,0.0,63,0.00,,---,0.15,VWS V12.08,2013-08-10 00:49:00,
2013-08-09 19:54:00,74.1,60.7,29.31,North,0,0.0,0.0,63,0.00,,---,0.15,VWS V12.08,2013-08-10 00:54:00,
2013-08-09 19:59:00,74.1,60.7,29.32,North,0,0.0,0.0,63,0.00,,---,0.15,VWS V12.08,2013-08-10 00:59:00,
2013-08-09 20:04:00,73.9,60.5,29.31,North,359,0.0,0.0,63,0.00,,---,0.15,VWS V12.08,2013-08-10 01:04:00,
2013-08-09 20:09:00,73.6,60.2,29.32,North,359,0.0,0.0,63,0.00,,---,0.15,VWS V12.08,2013-08-10 01:09:00,
2013-08-09 20:14:00,73.5,60.6,29.32,North,0,0.0,0.0,64,0.00,,---,0.15,VWS V12.08,2013-08-10 01:14:00,
2013-08-09 20:19:00,73.4,60.0,29.32,North,0,0.0,0.0,63,0.00,,---,0.15,VWS V12.08,2013-08-10 01:19:00,
2013-08-09 20:24:00,73.4,60.5,29.32,North,0,0.0,0.0,64,0.00,,---,0.15,VWS V12.08,2013-08-10 01:24:00,
2013-08-09 20:29:00,73.2,60.7,29.32,North,0,0.0,1.0,65,0.00,,---,0.15,VWS V12.08,2013-08-10 01:29:00,
2013-08-09 20:34:00,72.9,60.9,29.32,North,0,0.0,0.0,66,0.00,,---,0.15,VWS V12.08,2013-08-10 01:34:00,
2013-08-09 20:39:00,72.6,61.0,29.33,North,0,0.0,0.0,67,0.00,,---,0.15,VWS V12.08,2013-08-10 01:39:00,
2013-08-09 20:44:00,72.3,61.2,29.33,North,0,0.0,0.0,68,0.00,,---,0.15,VWS V12.08,2013-08-10 01:44:00,
2013-08-09 20:49:00,72.0,60.9,29.33,NNE,14,0.0,0.0,68,0.00,,---,0.15,VWS V12.08,2013-08-10 01:49:00,
2013-08-09 20:54:00,71.9,60.4,29.33,North,11,0.0,0.0,67,0.00,,---,0.15,VWS V12.08,2013-08-10 01:54:00,
2013-08-09 20:59:00,71.9,60.4,29.33,North,353,0.0,0.0,67,0.00,,---,0.15,VWS V12.08,2013-08-10 01:59:00,
2013-08-09 21:04:00,71.9,60.4,29.33,North,0,0.0,0.0,67,0.00,,---,0.15,VWS V12.08,2013-08-10 02:04:00,
2013-08-09 21:09:00,72.2,60.7,29.34,North,0,0.0,0.0,67,0.00,,---,0.15,VWS V12.08,2013-08-10 02:09:00,
2013-08-09 21:14:00,71.9,60.8,29.34,North,359,0.0,0.0,68,0.00,,---,0.15,VWS V12.08,2013-08-10 02:14:00,
2013-08-09 21:19:00,71.6,60.5,29.34,NE,37,0.0,0.0,68,0.00,,---,0.15,VWS V12.08,2013-08-10 02:19:00,
2013-08-09 21:25:00,71.2,60.5,29.34,North,0,0.0,0.0,69,0.00,,---,0.15,VWS V12.08,2013-08-10 02:25:00,
2013-08-09 21:30:00,71.5,60.8,29.34,North,0,0.0,0.0,69,0.00,,---,0.15,VWS V12.08,2013-08-10 02:30:00,
2013-08-09 21:36:00,71.8,60.7,29.34,North,0,0.0,0.0,68,0.00,,---,0.15,VWS V12.08,2013-08-10 02:36:00,
2013-08-09 21:41:00,71.8,60.7,29.35,North,0,0.0,0.0,68,0.00,,---,0.15,VWS V12.08,2013-08-10 02:41:00,
2013-08-09 21:46:00,71.5,60.4,29.35,North,0,0.0,0.0,68,0.00,,---,0.15,VWS V12.08,2013-08-10 02:46:00,
2013-08-09 21:51:00,71.2,60.5,29.35,North,0,0.0,0.0,69,0.00,,---,0.15,VWS V12.08,2013-08-10 02:51:00,
2013-08-09 21:56:00,70.9,60.2,29.35,North,0,0.0,0.0,69,0.00,,---,0.15,VWS V12.08,2013-08-10 02:56:00,
2013-08-09 22:01:00,70.5,59.8,29.35,North,0,0.0,0.0,69,0.00,,---,0.15,VWS V12.08,2013-08-10 03:01:00,
2013-08-09 22:06:00,70.5,59.8,29.35,North,0,0.0,0.0,69,0.00,,---,0.15,VWS V12.08,2013-08-10 03:06:00,
2013-08-09 22:11:00,70.7,60.0,29.35,North,0,0.0,0.0,69,0.00,,---,0.15,VWS V12.08,2013-08-10 03:11:00,
2013-08-09 22:17:00,70.4,59.8,29.36,North,0,0.0,0.0,69,0.00,,---,0.15,VWS V12.08,2013-08-10 03:17:00,
2013-08-09 22:22:00,70.2,59.2,29.36,North,0,0.0,0.0,68,0.00,,---,0.15,VWS V12.08,2013-08-10 03:22:00,
2013-08-09 22:27:00,70.0,59.0,29.36,North,0,0.0,0.0,68,0.00,,---,0.15,VWS V12.08,2013-08-10 03:27:00,
2013-08-09 22:32:00,70.0,59.0,29.36,North,0,0.0,0.0,68,0.00,,---,0.15,VWS V12.08,2013-08-10 03:32:00,
2013-08-09 22:37:00,69.9,58.9,29.36,North,0,0.0,0.0,68,0.00,,---,0.15,VWS V12.08,2013-08-10 03:37:00,
2013-08-09 22:42:00,69.8,58.8,29.36,North,0,0.0,0.0,68,0.00,,---,0.15,VWS V12.08,2013-08-10 03:42:00,
2013-08-09 22:47:00,69.8,58.8,29.36,North,0,0.0,0.0,68,0.00,,---,0.15,VWS V12.08,2013-08-10 03:47:00,
2013-08-09 22:52:00,69.9,58.5,29.36,North,0,0.0,0.0,67,0.00,,---,0.15,VWS V12.08,2013-08-10 03:52:00,
2013-08-09 22:57:00,69.9,58.5,29.36,North,0,0.0,0.0,67,0.00,,---,0.15,VWS V12.08,2013-08-10 03:57:00,
2013-08-09 23:01:00,69.8,58.4,29.36,North,0,0.0,0.0,67,0.00,,---,0.15,VWS V12.08,2013-08-10 04:01:00,
2013-08-09 23:02:00,69.8,57.9,29.36,North,0,0.0,0.0,66,0.00,,---,0.15,VWS V12.08,2013-08-10 04:02:00,
2013-08-09 23:04:00,69.8,58.4,29.36,North,0,0.0,0.0,67,0.00,,---,0.15,VWS V12.08,2013-08-10 04:04:00,
2013-08-09 23:05:00,69.8,58.4,29.36,North,0,0.0,0.0,67,0.00,,---,0.15,VWS V12.08,2013-08-10 04:05:00,
2013-08-09 23:10:00,69.9,58.0,29.37,North,0,0.0,0.0,66,0.00,,---,0.15,VWS V12.08,2013-08-10 04:10:00,
2013-08-09 23:15:00,70.1,58.2,29.37,North,0,0.0,0.0,66,0.00,,---,0.15,VWS V12.08,2013-08-10 04:15:00,
2013-08-09 23:20:00,70.1,58.2,29.37,North,0,0.0,0.0,66,0.00,,---,0.15,VWS V12.08,2013-08-10 04:20:00,
2013-08-09 23:25:00,70.0,58.1,29.37,North,0,0.0,0.0,66,0.00,,---,0.15,VWS V12.08,2013-08-10 04:25:00,
2013-08-09 23:31:00,70.0,58.1,29.37,North,0,0.0,0.0,66,0.00,,---,0.15,VWS V12.08,2013-08-10 04:31:00,
2013-08-09 23:36:00,69.9,58.0,29.37,North,0,0.0,0.0,66,0.00,,---,0.15,VWS V12.08,2013-08-10 04:36:00,
2013-08-09 23:41:00,69.8,57.9,29.37,North,0,0.0,0.0,66,0.00,,---,0.15,VWS V12.08,2013-08-10 04:41:00,
2013-08-09 23:46:00,69.6,57.8,29.37,North,0,0.0,0.0,66,0.00,,---,0.15,VWS V12.08,2013-08-10 04:46:00,
2013-08-09 23:51:00,69.3,57.9,29.38,North,0,0.0,0.0,67,0.00,,---,0.15,VWS V12.08,2013-08-10 04:51:00,
2013-08-09 23:56:00,69.2,58.2,29.38,North,0,0.0,0.0,68,0.00,,---,0.15,VWS V12.08,2013-08-10 04:56:00,